OBJECT B, 58918

Orbit data source: Space-Track

You're viewing an Uncataloged Satellite

Recently launched and/or uncataloged satellites may have evolving metadata. Metadata may include but not limited to: Owner, Maufacturer, Bus, Motor, and Mission.

OBJECT B, 58918 is a satellite in SSO that was launched on Sat, 03 Feb 2024 UTC via a JIELONG-3 launch vehicle from the South China Sea Launch Area (SCSLA). Unknown objects in Earth's orbit typically refer to objects detected orbiting the Earth but have not yet been identified or cataloged. These objects could be anything from previously untracked satellites, spent rocket stages, debris from satellite collisions, or even natural meteoroids temporarily captured by Earth's gravity.

Loading next visibility...
Identifier
58918, 2024-024B
Orbit
SSO
Country
Flag of TBDTBD
Related business
None
Manufacturer
Unknown
Mission
Operational Commercial Imaging
Bus & Motor
Unknown
Mass
Unknown
Launch date (UTC)
2024-02-03 (2 years ago)
Launch vehicle
JIELONG-3
Launch site
South China Sea Launch Area (SCSLA)
Object type
Unknown
Shape & HBR
Box, 0.2 m
Radar Cross Section
0.240 m², Large (>1 m²)

Expand to show TLE details & history
Last TLE update: 23 hours ago

TLE from 23 hours ago
0 OBJECT B
1 58918U 24024B   26172.49880064  .00005570  00000-0  25775-3 0  9996
2 58918  97.3062 238.7252 0018288 132.7647 227.5131 15.20377095132002
Epoch: 2026-06-21T11:58Z
TLE epoch observation values (Epoch: 2026-06-21T11:58:16.375Z)
Latitude
0.00001°
Longitude
149.45877°
Altitude
516.312 km
Speed
7.601 km/s
True Right ascension
15h 54m 54s
True Declination
0° 00' 00"
Sunlit
Object was in full shadow at epoch
Visualization orbit readout
Latitude
Unknown
Longitude
Unknown
Altitude
Unknown
Speed
Unknown
Apparent Right ascension
Unknown
Apparent Declination
Unknown
Sunlit
N/A
Visualization observer readout
Local Sidereal Time
21:33:19
Azimuth
Unknown
Elevation
Unknown
Doppler factor
Unknown
Orbital elements
Apogee altitude
514.245 km
Perigee altitude
489.082 km
Semi-major axis
6,879.8 km
Eccentricity
0.00183
Inclination
97.3062°
RAAN
238.7252°
Arg. of periapsis
132.7647°
True anomaly
227.3588°
Mean anomaly
227.5131°
Eccentric anomaly
227.43593°
Mean motion
3.80346 °/min
Orbital period
94.65 mins
BSTAR
0.00025775
Loading maneuver chart data...
Computing Atmospheric mass density...
Loading historical data...
Loading historical data...
Loading historical data...
Loading historical data...
Loading historical data...
Loading historical data...
Loading historical data...

Documentation

Showing up to 5 results
|